#timestamp,LO_Frequency,Hit,StdDev 
1456750815.8,286046989.1,Y
1456750835.7,286046998.3,P
1456750855.5,286047001.2,N
1456750875.3,286047001.7,N
1456750895.2,286047002.1,N
1456750915.9,286046999.8,N
1456750935.7,286047002.8,N
1456750955.6,286046999.3,N
1456750975.4,286046997.1,N
1456750995.2,286046996.9,N
1456751015.1,286046998.4,N
1456751016.0,286046998.4,N
1456751035.8,286047000.7,N
1456751055.6,286046998.7,N
1456751075.4,286046998.2,N
1456751095.3,286047000.1,N
1456751115.1,286047000.9,N
1456751135.8,286046998.9,N
1456751155.7,286047000.8,N
1456751175.5,286046998.9,N
1456751195.3,286047000.4,N
1456751215.2,286047000.7,N
1456751235.9,286046997.3,N
1456751255.7,286046994.2,N
1456751275.6,286046988.6,Y
1456751295.4,286046991.7,P
1456751315.2,286046992.2,N
1456751335.1,286046992.5,N
1456751336.0,286046992.5,N
1456751355.8,286046991.3,Y
1456751375.6,286046993.4,P
1456751395.5,286046992.6,P
1456751415.3,286046989.8,P
1456751435.1,286046989.7,Y
1456751455.9,286046993.4,P
1456751475.7,286046991.9,P
1456751495.5,286046992.2,P
1456751515.4,286046991.3,Y
1456751535.2,286046993.3,P
1456751555.0,286046995.8,P
1456751555.9,286046995.8,N
1456751575.8,286047000.5,N
1456751595.6,286047000.1,N
1456751615.4,286047003.3,N
1456751635.3,286047004.9,N
1456751655.1,286047009.2,N
1456751656.0,286047009.2,N
1456751675.8,286047008.3,N
1456751695.7,286047007.8,N
1456751715.5,286047011.2,N
1456751735.3,286047011.8,N
1456751755.1,286047013.3,N
1456751775.9,286047012.6,N
1456751795.7,286047013.6,N
1456751815.5,286047016.1,N
1456751835.4,286047014.4,N
1456751855.2,286047015.4,N
1456751875.0,286047015.2,N
1456751875.9,286047015.2,N
1456751895.8,286047015.1,N
1456751915.6,286047011.4,N
1456751935.4,286047009.5,N
1456751955.3,286047010.6,N
1456751975.1,286047009.4,N
1456751976.0,286047009.4,N
1456751995.8,286047008.3,N
1456752015.7,286047009.0,N
1456752035.5,286047007.9,N
1456752055.3,286047006.8,N
1456752075.2,286047007.4,N
1456752095.9,286047007.5,N
1456752115.7,286047004.9,N
1456752135.5,286047007.1,N
1456752155.4,286047004.8,N
1456752175.2,286047005.8,N
1456752195.0,286047004.1,N
1456752195.9,286047004.1,N
1456752215.8,286047001.4,N
1456752235.6,286047002.8,N
1456752255.4,286047001.5,N
1456752275.3,286047004.0,N
1456752295.1,286047001.9,N
1456752315.8,286046998.6,N
1456752335.7,286046997.6,N
1456752355.5,286046995.7,N
1456752375.3,286046994.8,N
1456752395.2,286046991.6,N
1456752415.9,286046987.6,N
1456752435.7,286046983.9,N
1456752455.6,286046982.6,N
1456752475.4,286046981.3,N
1456752495.2,286046979.1,N
1456752515.0,286046979.8,N
1456752516.0,286046979.8,N
1456752535.8,286046980.3,N
1456752555.6,286046980.0,N
1456752575.4,286046981.2,N
1456752595.3,286046981.8,N
1456752615.1,286046983.0,N
1456752635.8,286046982.2,N
1456752655.7,286046983.3,N
1456752675.5,286046986.8,N
1456752695.3,286046985.8,N
1456752715.2,286046986.9,N
1456752735.9,286046987.8,N
1456752755.7,286046984.9,N
1456752775.6,286046982.6,N
1456752795.4,286046980.6,N
1456752815.2,286046980.9,N
1456752835.1,286046977.8,N
1456752836.0,286046977.8,Y
1456752855.8,286046990.4,P
1456752875.6,286046992.8,P
1456752895.5,286046988.6,P
1456752915.3,286046988.9,Y
1456752935.1,286047002.7,P
1456752955.9,286047003.3,N
1456752975.7,286047006.6,N
1456752995.5,286047013.0,N
1456753015.4,286047012.9,N
1456753035.2,286047017.0,N
1456753055.0,286047017.9,N
1456753055.9,286047017.9,N
1456753075.7,286047018.9,N
1456753095.6,286047023.6,N
1456753115.4,286047020.7,N
1456753135.2,286047023.2,N
1456753155.1,286047024.3,N
1456753156.0,286047024.3,N
1456753175.8,286047026.8,N
1456753195.6,286047025.1,N
1456753215.5,286047026.5,N
1456753235.3,286047027.3,N
1456753255.1,286047027.6,N
1456753275.9,286047028.2,N
1456753295.7,286047027.5,N
1456753315.5,286047029.7,N
1456753335.4,286047029.5,N
1456753355.2,286047029.7,N
1456753375.0,286047027.2,N
1456753375.9,286047027.2,N
1456753395.7,286047027.8,N
1456753415.6,286047025.4,N
1456753435.4,286047027.2,N
1456753455.2,286047027.5,N
1456753475.1,286047025.7,Y
1456753476.0,286047025.7,P
1456753495.8,286047005.9,P
1456753515.6,286047001.3,N
1456753535.5,286047001.8,N
1456753555.3,286047004.4,N
1456753575.1,286047004.2,N
1456753595.9,286047005.7,N
1456753615.7,286047002.3,N
1456753635.5,286047000.2,N
1456753655.4,286047001.5,N
1456753675.2,286047003.8,N
1456753695.0,286047002.3,N
1456753695.9,286047002.3,N
1456753715.8,286047005.7,N
1456753735.6,286047003.4,N
1456753755.4,286047005.9,N
1456753775.3,286047004.3,N
1456753795.1,286046999.8,N
1456753796.0,286046999.8,N
1456753815.8,286047000.2,N
1456753835.6,286047002.1,N
1456753855.5,286046998.1,N
1456753875.3,286046999.9,N
1456753895.1,286046998.7,N
1456753915.9,286046998.1,N
1456753935.7,286047002.3,N
1456753955.5,286046999.7,N
1456753975.4,286046999.6,N
1456753995.2,286047000.8,N
1456754015.0,286047002.6,N
1456754015.9,286047002.6,N
1456754035.8,286047002.5,N
1456754055.6,286047001.5,N
1456754075.4,286047000.5,N
1456754095.3,286047000.9,N
1456754115.1,286046998.3,N
1456754116.0,286046998.3,N
1456754135.8,286046996.7,N
1456754155.7,286047000.6,N
1456754175.5,286047000.9,N
1456754195.3,286046998.7,N
1456754215.2,286046998.7,N
1456754235.9,286046996.5,N
1456754255.7,286046996.5,N
1456754275.5,286046997.0,N
1456754295.4,286046996.5,N
1456754315.2,286047000.5,N
1456754335.0,286047001.6,N
1456754335.9,286047001.6,N
1456754355.8,286047002.4,N
1456754375.6,286046999.7,N
1456754395.4,286046998.3,N
